Shungnak AP, Shungnak, AK, AK

9:13 PM AKST on December 12, 2019 (GMT -0900)
Shungnak AP, Shungnak, AK

Weather History for PAGH - November, 2019

Change the Weather History Date:

Tuesday, November 19, 2019

  Actual Average (PAFM) Record (PAFM)
Temperature  
Mean Temperature -7 °F -  
Max Temperature 8 °F 12 °F 35 °F (2014)
Min Temperature -20 °F 4 °F -35 °F (1991)
Degree Days  
Heating Degree Days 72    
Moisture  
Dew Point -16 °F    
Average Humidity 73    
Maximum Humidity 82    
Minimum Humidity 55    
Precipitation  
Precipitation 0.00 in - - ()
Sea Level Pressure  
Sea Level Pressure 29.77 in    
Wind  
Wind Speed 7 mph (East)    
Max Wind Speed 18 mph    
Max Gust Speed -    
Visibility 10 miles    
Events      
Averages and records for this station are not official NWS values.
T = Trace of Precipitation, MM = Missing Value Source: NWS Daily Summary

Daily Weather History Graph

Daily Weather History Graph

Search for Another Location

Airport or City:

Astronomy

Nov. 19, 2019 Rise Set
Actual Time 10:43 AM AKST 3:43 PM AKST
Civil Twilight 9:26 AM AKST 5:00 PM AKST
Nautical Twilight 8:16 AM AKST 6:10 PM AKST
Astronomical Twilight 7:12 AM AKST 7:14 PM AKST
Moon 11:40 PM AKST (11/19) 4:24 PM AKST (11/19)
Length of Visible Light 7h 33m
Length of Day
5h 00m
Waning Gibbous, 50% of the Moon is Illuminated
Nov 19
Waning Gibbous
Nov 19
Last Quarter
Nov 26
New
Dec 3
First Quarter
Dec 11
Full

Hourly Weather History & Observations

Time (AKST) Temp. Windchill Dew Point Humidity Pressure Visibility Wind Dir Wind Speed Gust Speed Precip Events Conditions
12:56 AM -20.9 °F -36.4 °F -26.0 °F 77% 30.09 in 10.0 mi East 5.8 mph - N/A   Clear
2:56 AM -18.9 °F -35.8 °F -24.0 °F 78% 30.07 in 10.0 mi East 6.9 mph - N/A   Clear
3:56 AM -20.0 °F -33.3 °F -25.1 °F 78% 30.06 in 10.0 mi ESE 4.6 mph - N/A   Clear
4:56 AM -18.0 °F -33.0 °F -23.1 °F 78% 30.04 in 10.0 mi ESE 5.8 mph - N/A   Clear
5:56 AM -20.0 °F -33.3 °F -25.1 °F 78% 30.01 in 10.0 mi ENE 4.6 mph - N/A   Clear
6:56 AM -18.9 °F -34.0 °F -24.0 °F 78% 29.99 in 10.0 mi East 5.8 mph - N/A   Clear
7:56 AM -20.0 °F -35.3 °F -25.1 °F 78% 29.97 in 10.0 mi East 5.8 mph - N/A   Clear
8:56 AM -18.0 °F -33.0 °F -23.1 °F 78% 29.94 in 10.0 mi East 5.8 mph - N/A   Clear
9:56 AM -18.0 °F -30.9 °F -23.1 °F 78% 29.89 in 10.0 mi East 4.6 mph - N/A   Clear
10:56 AM -18.9 °F -32.0 °F -24.0 °F 78% 29.87 in 10.0 mi East 4.6 mph - N/A   Clear
11:56 AM -17.0 °F -31.7 °F -22.0 °F 78% 29.84 in 10.0 mi ESE 5.8 mph - N/A   Clear
12:56 PM -16.1 °F -28.6 °F -20.0 °F 82% 29.79 in 10.0 mi ENE 4.6 mph - N/A   Clear
1:56 PM -7.1 °F -22.8 °F -13.0 °F 75% 29.72 in 10.0 mi ESE 8.1 mph - N/A   Clear
2:56 PM -9.0 °F - -15.0 °F 75% 29.71 in 10.0 mi Calm Calm - N/A   Clear
3:56 PM -11.0 °F -22.8 °F -16.1 °F 78% 29.67 in 10.0 mi NE 4.6 mph - N/A   Clear
4:56 PM -0.0 °F -19.4 °F -8.0 °F 69% 29.62 in 10.0 mi East 15.0 mph - N/A   Clear
5:56 PM -0.0 °F -18.7 °F -9.0 °F 66% 29.60 in 10.0 mi East 13.8 mph - N/A   Clear
6:56 PM 1.0 °F -15.8 °F -9.0 °F 63% 29.57 in 10.0 mi East 11.5 mph - N/A   Clear
7:56 PM 3.9 °F -15.0 °F -8.0 °F 58% 29.52 in 10.0 mi East 16.1 mph - N/A   Overcast
8:56 PM 5.0 °F -14.2 °F -8.0 °F 55% 29.50 in 10.0 mi East 17.3 mph - N/A   Overcast
9:56 PM 6.1 °F -10.9 °F -6.0 °F 58% 29.47 in 10.0 mi East 13.8 mph - N/A   Overcast
10:56 PM 6.1 °F -10.2 °F -2.9 °F 67% 29.45 in 10.0 mi East 12.7 mph - N/A   Overcast
11:56 PM 8.1 °F -10.7 °F 1.0 °F 73% 29.42 in 10.0 mi East 18.4 mph - N/A   Overcast